TimeEDT,TemperatureF,Dew PointF,Humidity,Sea Level PressureIn,VisibilityMPH,Wind Direction,Wind SpeedMPH,Gust SpeedMPH,PrecipitationIn,Events,Conditions,WindDirDegrees,DateUTC
12:53 AM,68.0,62.1,81,30.15,10.0,NE,8.1,-,N/A,,Clear,40,2013-10-26 04:53:00
1:53 AM,66.9,60.1,79,30.13,10.0,NE,6.9,-,N/A,,Clear,40,2013-10-26 05:53:00
2:53 AM,66.9,59.0,76,30.12,10.0,NE,8.1,-,N/A,,Clear,40,2013-10-26 06:53:00
3:53 AM,66.0,59.0,78,30.10,10.0,NE,8.1,-,N/A,,Clear,40,2013-10-26 07:53:00
4:53 AM,66.9,59.0,76,30.10,10.0,NNE,5.8,-,N/A,,Clear,20,2013-10-26 08:53:00
5:53 AM,66.0,59.0,78,30.11,10.0,NE,9.2,-,N/A,,Clear,40,2013-10-26 09:53:00
6:53 AM,64.9,59.0,81,30.13,10.0,NE,9.2,-,N/A,,Clear,40,2013-10-26 10:53:00
7:53 AM,64.9,59.0,81,30.14,10.0,NE,8.1,-,N/A,,Clear,40,2013-10-26 11:53:00
8:53 AM,66.0,60.1,81,30.15,10.0,NE,6.9,-,N/A,,Clear,40,2013-10-26 12:53:00
9:53 AM,71.1,61.0,70,30.16,10.0,NE,11.5,-,N/A,,Clear,40,2013-10-26 13:53:00
10:53 AM,75.0,63.0,66,30.16,10.0,NNE,9.2,-,N/A,,Clear,20,2013-10-26 14:53:00
11:53 AM,80.1,63.0,56,30.16,10.0,NNE,12.7,-,N/A,,Clear,30,2013-10-26 15:53:00
12:53 PM,82.0,62.1,51,30.14,10.0,East,10.4,-,N/A,,Clear,90,2013-10-26 16:53:00
1:53 PM,84.0,60.1,44,30.11,10.0,East,8.1,-,N/A,,Clear,90,2013-10-26 17:53:00
2:53 PM,84.9,60.1,43,30.08,10.0,NE,11.5,-,N/A,,Clear,50,2013-10-26 18:53:00
3:53 PM,84.9,60.1,43,30.07,10.0,North,6.9,-,N/A,,Clear,360,2013-10-26 19:53:00
4:53 PM,84.0,59.0,43,30.06,10.0,NE,8.1,-,N/A,,Clear,40,2013-10-26 20:53:00
5:53 PM,82.0,59.0,45,30.06,10.0,NE,9.2,-,N/A,,Clear,40,2013-10-26 21:53:00
6:53 PM,78.1,60.1,54,30.07,10.0,NE,4.6,-,N/A,,Clear,50,2013-10-26 22:53:00
7:53 PM,75.9,60.1,58,30.08,10.0,NE,4.6,-,N/A,,Clear,40,2013-10-26 23:53:00
8:53 PM,73.9,60.1,62,30.10,10.0,North,3.5,-,N/A,,Clear,350,2013-10-27 00:53:00
9:53 PM,72.0,60.1,66,30.10,10.0,North,4.6,-,N/A,,Clear,10,2013-10-27 01:53:00
10:53 PM,72.0,59.0,64,30.10,10.0,North,4.6,-,N/A,,Clear,10,2013-10-27 02:53:00
11:53 PM,71.1,57.0,61,30.09,10.0,NE,8.1,-,N/A,,Clear,40,2013-10-27 03:53:00